Simultaneous Nadir Overpasses (SNOs) Predictions

Prediction of SNOs between NOAA-19 and NPP Satellite Orbit:

Table of predicted SNOs for the next 14.0 days since TLE Epoch: 4/17/2021
Index Date (NOAA-19) Time (NOAA-19) Lat,Lon (NOAA-19) SZA (NOAA-19 ) Date (NPP) Time (NPP) Lat,Lon (NPP) SZA (NPP ) Distance(km) Time Diff (sec)
1 04/25/2021 02:57:43 -78.40, -71.64 113.58 04/25/2021 02:58:51 -78.40, -71.69 113.60 1.05 68
2 04/25/2021 03:48:42 78.41, 95.63 66.41 04/25/2021 03:49:36 78.39, 95.70 66.37 2.39 54
3 04/25/2021 04:39:43 -78.42, -97.05 113.60 04/25/2021 04:40:21 -78.41, -97.09 113.62 1.31 38
4 04/25/2021 05:30:42 78.42, 70.22 66.39 04/25/2021 05:31:06 78.40, 70.30 66.36 3.18 24
5 04/25/2021 06:21:43 -78.43,-122.46 113.62 04/25/2021 06:21:51 -78.42,-122.50 113.63 2.01 8
6 04/25/2021 07:12:42 78.44, 44.81 66.37 04/25/2021 07:12:37 78.44, 44.66 66.40 3.39 5
7 04/25/2021 08:03:43 -78.45,-147.87 113.64 04/25/2021 08:03:21 -78.42,-147.90 113.65 2.84 22
8 04/25/2021 08:54:42 78.45, 19.41 66.35 04/25/2021 08:54:07 78.45, 19.26 66.38 3.34 35
9 04/25/2021 09:45:43 -78.46,-173.28 113.66 04/25/2021 09:44:51 -78.43,-173.31 113.67 3.71 52
10 04/25/2021 10:36:43 78.43, -6.23 66.33 04/25/2021 10:35:37 78.45, -6.15 66.36 3.30 66
11 04/25/2021 11:27:35 -78.75, 163.25 113.60 04/25/2021 11:26:30 -78.77, 159.21 113.18 87.65 65



Historial Predications of SNOs between NOAA-19 and NPP
